Flag for Belgium Weather past 2 weeks in Eupen, Belgium

Now
48 °F

Light rain. Overcast.


Feels Like: 45 °F
Forecast: 43 / 60 °F
Wind: 7 mph from West

Location: Spa / La Sauveniere

Current Time: May 6, 2015 at 2:40:56 PM

Latest Report: May 6, 2015 at 2:00 PM


Visibility: 6 mi

Pressure: 29.92 "Hg

Humidity: 85%

Dew point: 44 °F

Location of EupenLocation

Historic Weather in Eupen — Graph

°F

Eupen temperature yesterday

Maximum temperature yesterday: 66 °F (at 1:00 PM)
Minimum temperature yesterday: 51 °F (at 10:00 PM)
Average temperature yesterday: 59 °F

Past Weeks' High & Low Weather Summary

 TemperatureHumidityPressure
High66 °F (May 5, 1:00 PM)100% (Apr 27, 7:00 AM)30.47 "Hg (Apr 27, 7:00 AM)
Low31 °F (Apr 28, 6:00 AM)25% (Apr 24, 2:00 PM)29.44 "Hg (May 5, 3:00 AM)
Average49 °F74%29.91 "Hg
* Reported Apr 21 1:00 PM — May 6 1:00 PM, Eupen, Weather by CustomWeather, © 2015

Note: Actual official high and low records may vary slightly from our data, if they occured in-between our weather recording intervals... More about our weather records

Advertising

Eupen weather history for previous 24 hours

 ConditionsComfort  
Time TempWeatherWind HumidityBarometerVisibility
1:00 PM
Wed, May 6
55 °FPartly sunny.9 mph50%29.89 "Hg19 mi
12:00 PM55 °FPartly sunny.9 mph53%29.89 "Hg19 mi
11:00 AM52 °FPassing clouds.8 mph59%29.90 "Hg19 mi
10:00 AM49 °FScattered clouds.7 mph64%29.91 "Hg18 mi
9:00 AM48 °FSunny.7 mph73%29.92 "Hg16 mi
8:00 AM46 °FSunny.6 mph80%29.91 "Hg17 mi
7:00 AM44 °FSunny.5 mph82%29.90 "Hg19 mi
6:00 AM44 °FClear.5 mph84%29.89 "Hg18 mi
4:00 AM47 °FClear.3 mph80%29.89 "Hg22 mi
3:00 AM48 °FPassing clouds.3 mph77%29.88 "Hg22 mi
2:00 AM49 °FClear.5 mph78%29.88 "Hg22 mi
1:00 AM49 °FClear.5 mph76%29.86 "Hg22 mi
12:00 AM50 °FClear.5 mph73%29.85 "Hg25 mi
10:00 PM
Tue, May 5
51 °FClear.3 mph74%29.84 "Hg28 mi
9:00 PM54 °FPartly sunny.5 mph68%29.81 "Hg28 mi
8:00 PM56 °FSunny.3 mph66%29.79 "Hg28 mi
7:00 PM57 °FOvercast.6 mph67%29.77 "Hg19 mi
6:00 PM54 °FOvercast.5 mph84%29.76 "Hg22 mi
5:00 PM53 °FOvercast.6 mph89%29.76 "Hg19 mi
4:00 PM52 °FLow clouds.6 mph95%29.73 "Hg18 mi
3:00 PM63 °FOvercast.8 mph64%29.62 "Hg22 mi
2:00 PM64 °FOvercast.12 mph57%29.56 "Hg22 mi
Weather by CustomWeather, © 2015

See weather overviewHow to use our weather pages